Location: Unspecified
(39.5610°N, 0.0000°E)
Time: 13:56:09
(UTC+00:00)

FAISAT - Visible Passes

Search period start: 04 April 2026 00:00
Search period end: 14 April 2026 00:00
Orbit: 964 x 1021 km, 82.9° (Epoch: 29 March)

Date Brightness Start Highest point End Pass type
(mag) Time Alt. Az. Time Alt. Az. Time Alt. Az.
4 Apr 10.1 02:37:10 10° NNE 02:42:10 23° ENE 02:47:10 10° ESE visible
4 Apr 8.2 04:22:03 10° NNW 04:28:12 53° W 04:34:25 10° SSW visible
5 Apr 9.0 03:06:49 10° N 03:12:56 46° ENE 03:19:05 10° SSE visible
5 Apr 9.0 04:53:11 10° NNW 04:58:20 26° W 05:03:32 10° SW visible
6 Apr 10.7 01:54:00 10° NE 01:56:50 13° ENE 01:59:41 10° E visible
6 Apr 8.0 03:37:02 10° N 03:43:28 89° E 03:49:56 10° S visible
7 Apr 9.9 02:22:34 10° NNE 02:27:51 26° ENE 02:33:08 10° SE visible
7 Apr 8.3 04:07:43 10° NNW 04:13:47 47° W 04:19:54 10° SSW visible
8 Apr 8.8 02:52:20 10° N 02:58:35 51° E 03:04:49 10° SSE visible
8 Apr 9.1 04:38:58 10° NW 04:43:52 24° W 04:48:48 10° SW visible
9 Apr 10.6 01:39:04 10° NNE 01:42:33 15° ENE 01:46:03 10° E visible
9 Apr 8.0 03:22:38 10° N 03:29:04 83° W 03:34:53 13° S visible
10 Apr 9.7 02:08:00 10° NNE 02:13:31 29° ENE 02:18:50 11° SE visible
10 Apr 8.4 03:53:23 10° NNW 03:59:21 42° W 04:03:46 18° SSW visible
11 Apr 8.6 02:37:53 10° N 02:44:12 57° E 02:48:02 25° SSE visible
11 Apr 9.2 04:24:48 10° NW 04:29:24 21° W 04:32:59 13° WSW visible
12 Apr 10.4 01:24:16 10° NNE 01:28:16 17° ENE 01:32:16 10° ESE visible
12 Apr 7.9 03:08:15 10° N 03:14:40 74° W 03:17:26 37° S visible
13 Apr 9.5 01:53:28 10° NNE 01:59:12 33° ENE 02:02:01 23° ESE visible
13 Apr 8.6 03:39:04 10° NNW 03:44:54 37° W 03:47:00 30° SW visible
